EDT,Max TemperatureF,Mean TemperatureF,Min TemperatureF,Max Dew PointF,MeanDew PointF,Min DewpointF,Max Humidity, Mean Humidity, Min Humidity, Max Sea Level PressureIn, Mean Sea Level PressureIn, Min Sea Level PressureIn, Max VisibilityMiles, Mean VisibilityMiles, Min VisibilityMiles, Max Wind SpeedMPH, Mean Wind SpeedMPH, Max Gust SpeedMPH,PrecipitationIn, CloudCover, Events, WindDirDegrees
2013-3-1,43,40,37,37,34,30,93,81,65,29.66,29.57,29.49,10,10,7,23,12,28,0.00,7,,332
2013-3-2,41,38,36,32,29,27,79,69,57,29.68,29.65,29.62,10,10,10,16,11,17,0.00,7,,288
2013-3-3,39,38,36,31,29,27,79,73,67,29.63,29.60,29.57,10,10,10,13,7,,0.00,8,,291
2013-3-4,42,38,33,30,26,23,82,66,47,29.69,29.61,29.57,10,10,10,20,14,29,0.00,6,,301
2013-3-5,43,39,32,37,31,25,93,76,64,30.03,29.90,29.71,10,10,9,24,16,31,0.00,7,Rain,341
2013-3-6,42,38,35,36,35,33,93,84,70,30.01,29.95,29.81,10,9,3,36,13,54,0.07,8,Rain,56
2013-3-7,39,36,33,36,35,32,100,92,87,29.81,29.77,29.75,5,3,1,45,36,63,1.97,8,Rain-Snow,25
2013-3-8,42,39,36,36,35,31,93,89,67,29.99,29.82,29.75,10,4,2,38,33,50,0.64,8,Rain-Snow,20
2013-3-9,39,38,37,34,32,30,87,77,70,30.28,30.15,29.99,10,10,10,33,29,46,0.00,8,,18
2013-3-10,42,39,36,33,32,29,86,75,65,30.38,30.34,30.30,10,10,10,18,12,21,0.00,8,,54
2013-3-11,45,41,37,41,36,32,96,84,76,30.34,30.28,30.20,10,10,8,13,8,,0.00,3,,169
2013-3-12,50,46,42,48,45,41,97,93,86,30.21,30.03,29.78,9,7,4,22,14,30,0.04,4,Rain,151
2013-3-13,50,46,37,49,41,27,100,85,57,29.78,29.75,29.71,10,7,1,21,14,28,0.10,5,Rain,263
2013-3-14,39,34,28,33,22,7,86,62,40,29.81,29.77,29.70,10,10,5,28,11,37,0.00,6,Snow,287
2013-3-15,41,33,25,31,17,7,73,53,37,29.87,29.79,29.69,10,10,10,28,22,43,0.00,3,,281
2013-3-16,39,36,33,29,21,16,70,54,39,29.87,29.80,29.70,10,10,9,18,12,29,0.00,4,Snow,292
2013-3-17,39,34,28,28,20,13,85,57,39,30.28,30.03,29.87,10,10,10,16,7,23,0.00,1,,319
2013-3-18,37,32,27,24,17,10,64,53,45,30.43,30.35,30.22,10,10,10,18,13,23,0.00,2,,76
2013-3-19,46,40,35,47,39,26,100,93,67,30.19,29.71,29.50,10,4,0,28,20,38,0.76,8,Fog-Rain,124
2013-3-20,42,36,32,31,25,19,89,67,47,29.85,29.77,29.68,10,10,10,29,16,37,0.00,3,,270
2013-3-21,45,36,28,34,31,27,100,80,53,29.84,29.65,29.56,10,8,1,24,10,31,0.15,5,Rain-Snow,14
2013-3-22,37,34,30,32,27,22,96,78,53,29.75,29.64,29.56,10,6,1,22,15,30,0.08,6,Snow,299
2013-3-23,45,38,33,24,21,18,66,51,37,29.78,29.72,29.66,10,10,10,26,19,45,0.00,2,,283
2013-3-24,45,38,33,28,24,21,75,58,43,29.83,29.79,29.75,10,10,10,16,12,24,0.00,0,,334
2013-3-25,46,38,32,33,31,27,89,74,56,29.74,29.54,29.39,10,10,6,28,12,39,0.04,5,Rain-Snow,50
2013-3-26,46,41,36,35,30,22,87,69,40,29.78,29.61,29.39,10,10,6,24,18,33,0.01,3,Rain,332
2013-3-27,50,41,34,36,30,25,86,64,41,29.83,29.79,29.76,10,10,10,18,10,26,0.00,2,,296
2013-3-28,50,44,39,41,35,29,93,78,51,30.02,29.88,29.82,10,10,7,24,13,29,0.04,7,Rain,342
2013-3-29,54,46,39,37,35,33,83,67,47,30.04,30.02,30.00,10,10,10,16,10,23,0.00,2,,280
2013-3-30,52,45,39,38,35,30,89,71,44,30.11,30.06,30.02,10,10,10,15,7,20,0.02,3,,271
2013-3-31,48,42,37,43,39,35,93,83,74,30.14,30.06,29.76,10,10,6,23,9,31,0.09,2,Rain,198